Time,TemperatureF,DewpointF,PressureIn,WindDirection,WindDirectionDegrees,WindSpeedMPH,WindSpeedGustMPH,Humidity,HourlyPrecipIn,Conditions,Clouds,dailyrainin,SoftwareType,DateUTC
2013-02-01 00:08:00,22.0,9.0,29.48,WNW,290,4.0,11.0,58,0.00,,,0.00,weatherlink.com 1.10,2013-02-01 05:08:00,
2013-02-01 00:23:00,22.0,10.0,29.48,West,260,3.0,8.0,60,0.00,,,0.00,weatherlink.com 1.10,2013-02-01 05:23:00,
2013-02-01 00:39:00,22.0,10.0,29.48,West,275,8.0,8.0,60,0.00,,,0.00,weatherlink.com 1.10,2013-02-01 05:39:00,
2013-02-01 00:53:00,22.0,10.0,29.49,WNW,294,7.0,11.0,59,0.00,,,0.00,weatherlink.com 1.10,2013-02-01 05:53:00,
2013-02-01 01:08:00,21.9,9.0,29.49,WNW,284,12.0,17.0,59,0.00,,,0.00,weatherlink.com 1.10,2013-02-01 06:08:00,
2013-02-01 01:24:00,21.6,10.0,29.50,WNW,284,4.0,13.0,60,0.00,,,0.00,weatherlink.com 1.10,2013-02-01 06:24:00,
2013-02-01 01:39:00,21.5,9.0,29.51,WSW,257,3.0,19.0,58,0.00,,,0.00,weatherlink.com 1.10,2013-02-01 06:39:00,
2013-02-01 01:54:00,21.3,10.0,29.52,WSW,253,1.0,12.0,63,0.00,,,0.00,weatherlink.com 1.10,2013-02-01 06:54:00,
2013-02-01 02:09:00,20.2,14.0,29.52,SE,137,2.0,8.0,78,0.00,,,0.00,weatherlink.com 1.10,2013-02-01 07:09:00,
2013-02-01 02:24:00,19.8,15.0,29.54,WNW,298,4.0,7.0,81,0.00,,,0.00,weatherlink.com 1.10,2013-02-01 07:24:00,
2013-02-01 02:39:00,19.3,16.0,29.54,South,190,3.0,11.0,85,0.00,,,0.00,weatherlink.com 1.10,2013-02-01 07:39:00,
2013-02-01 02:54:00,18.8,16.0,29.55,West,269,2.0,12.0,89,0.00,,,0.00,weatherlink.com 1.10,2013-02-01 07:54:00,
2013-02-01 03:09:00,18.5,16.0,29.55,WSW,239,2.0,13.0,91,0.00,,,0.00,weatherlink.com 1.10,2013-02-01 08:09:00,
2013-02-01 03:24:00,18.3,16.0,29.55,West,281,3.0,7.0,92,0.00,,,0.00,weatherlink.com 1.10,2013-02-01 08:24:00,
2013-02-01 03:39:00,18.0,16.0,29.55,SW,222,4.0,14.0,92,0.00,,,0.00,weatherlink.com 1.10,2013-02-01 08:39:00,
2013-02-01 03:54:00,17.7,16.0,29.57,West,281,3.0,10.0,92,0.00,,,0.00,weatherlink.com 1.10,2013-02-01 08:54:00,
2013-02-01 04:09:00,17.5,16.0,29.57,WNW,282,2.0,7.0,92,0.00,,,0.00,weatherlink.com 1.10,2013-02-01 09:09:00,
2013-02-01 04:25:00,16.9,15.0,29.57,West,274,3.0,9.0,91,0.00,,,0.00,weatherlink.com 1.10,2013-02-01 09:25:00,
2013-02-01 04:39:00,16.4,14.0,29.58,WSW,239,4.0,8.0,91,0.00,,,0.00,weatherlink.com 1.10,2013-02-01 09:39:00,
2013-02-01 04:54:00,16.3,14.0,29.59,West,267,6.0,11.0,90,0.00,,,0.00,weatherlink.com 1.10,2013-02-01 09:54:00,
2013-02-01 05:10:00,16.4,14.0,29.59,West,262,5.0,13.0,89,0.00,,,0.00,weatherlink.com 1.10,2013-02-01 10:10:00,
2013-02-01 05:25:00,16.3,14.0,29.59,West,281,2.0,14.0,89,0.00,,,0.00,weatherlink.com 1.10,2013-02-01 10:25:00,
2013-02-01 05:40:00,16.4,14.0,29.60,WNW,287,9.0,12.0,89,0.00,,,0.00,weatherlink.com 1.10,2013-02-01 10:40:00,
2013-02-01 05:55:00,16.3,14.0,29.61,WNW,287,1.0,10.0,89,0.00,,,0.00,weatherlink.com 1.10,2013-02-01 10:55:00,
2013-02-01 06:10:00,16.2,13.0,29.62,West,269,3.0,7.0,88,0.00,,,0.00,weatherlink.com 1.10,2013-02-01 11:10:00,
2013-02-01 06:25:00,15.9,13.0,29.63,West,273,5.0,8.0,88,0.00,,,0.00,weatherlink.com 1.10,2013-02-01 11:25:00,
2013-02-01 06:40:00,15.7,13.0,29.64,NW,314,1.0,9.0,87,0.00,,,0.00,weatherlink.com 1.10,2013-02-01 11:40:00,
2013-02-01 06:55:00,15.7,12.0,29.64,West,278,2.0,7.0,85,0.00,,,0.00,weatherlink.com 1.10,2013-02-01 11:55:00,
2013-02-01 07:10:00,15.6,12.0,29.65,South,183,2.0,5.0,85,0.00,,,0.00,weatherlink.com 1.10,2013-02-01 12:10:00,
2013-02-01 07:25:00,15.6,12.0,29.66,South,186,2.0,7.0,85,0.00,,,0.00,weatherlink.com 1.10,2013-02-01 12:25:00,
2013-02-01 07:40:00,15.7,11.0,29.66,WNW,294,4.0,7.0,83,0.00,,,0.00,weatherlink.com 1.10,2013-02-01 12:40:00,
2013-02-01 07:55:00,16.0,11.0,29.68,West,272,5.0,14.0,80,0.00,,,0.00,weatherlink.com 1.10,2013-02-01 12:55:00,
2013-02-01 08:10:00,16.0,11.0,29.69,WSW,248,2.0,8.0,80,0.00,,,0.00,weatherlink.com 1.10,2013-02-01 13:10:00,
2013-02-01 08:25:00,16.3,10.0,29.70,West,278,4.0,9.0,77,0.00,,,0.00,weatherlink.com 1.10,2013-02-01 13:25:00,
2013-02-01 08:40:00,16.8,10.0,29.71,WNW,284,4.0,13.0,73,0.00,,,0.00,weatherlink.com 1.10,2013-02-01 13:40:00,
2013-02-01 08:55:00,17.3,9.0,29.72,WSW,258,4.0,20.0,71,0.00,,,0.00,weatherlink.com 1.10,2013-02-01 13:55:00,
2013-02-01 09:10:00,17.7,10.0,29.72,WNW,284,2.0,7.0,72,0.00,,,0.00,weatherlink.com 1.10,2013-02-01 14:10:00,
2013-02-01 09:25:00,18.5,10.0,29.73,WNW,284,3.0,13.0,70,0.00,,,0.00,weatherlink.com 1.10,2013-02-01 14:25:00,
2013-02-01 09:40:00,18.7,10.0,29.74,NW,309,4.0,14.0,68,0.00,,,0.00,weatherlink.com 1.10,2013-02-01 14:40:00,
2013-02-01 09:55:00,18.3,9.0,29.75,West,278,6.0,14.0,66,0.00,,,0.00,weatherlink.com 1.10,2013-02-01 14:55:00,
2013-02-01 10:10:00,18.7,9.0,29.76,WNW,293,8.0,16.0,65,0.00,,,0.00,weatherlink.com 1.10,2013-02-01 15:10:00,
2013-02-01 10:25:00,18.9,8.0,29.77,West,259,8.0,13.0,63,0.00,,,0.00,weatherlink.com 1.10,2013-02-01 15:25:00,
2013-02-01 10:40:00,19.1,7.0,29.78,West,281,11.0,19.0,60,0.00,,,0.00,weatherlink.com 1.10,2013-02-01 15:40:00,
2013-02-01 10:55:00,19.0,7.0,29.78,West,280,2.0,17.0,60,0.00,,,0.00,weatherlink.com 1.10,2013-02-01 15:55:00,
2013-02-01 11:10:00,19.2,8.0,29.78,WNW,285,4.0,15.0,61,0.00,,,0.00,weatherlink.com 1.10,2013-02-01 16:10:00,
2013-02-01 11:25:00,19.6,8.0,29.79,WNW,302,5.0,13.0,62,0.00,,,0.00,weatherlink.com 1.10,2013-02-01 16:25:00,
2013-02-01 11:41:00,19.4,9.0,29.79,West,267,5.0,16.0,64,0.00,,,0.00,weatherlink.com 1.10,2013-02-01 16:41:00,
2013-02-01 11:56:00,19.1,9.0,29.78,WSW,248,3.0,12.0,66,0.00,,,0.00,weatherlink.com 1.10,2013-02-01 16:56:00,
2013-02-01 12:10:00,19.2,10.0,29.79,WNW,294,10.0,10.0,68,0.00,,,0.00,weatherlink.com 1.10,2013-02-01 17:10:00,
2013-02-01 12:25:00,20.7,10.0,29.78,WSW,250,2.0,15.0,64,0.00,,,0.00,weatherlink.com 1.10,2013-02-01 17:25:00,
2013-02-01 12:40:00,21.5,10.0,29.77,SSW,205,3.0,15.0,62,0.00,,,0.00,weatherlink.com 1.10,2013-02-01 17:40:00,
2013-02-01 12:56:00,21.6,10.0,29.78,West,267,4.0,12.0,62,0.00,,,0.00,weatherlink.com 1.10,2013-02-01 17:56:00,
2013-02-01 13:10:00,21.2,9.0,29.77,West,269,4.0,16.0,60,0.00,,,0.00,weatherlink.com 1.10,2013-02-01 18:10:00,
2013-02-01 13:26:00,20.2,9.0,29.77,West,278,1.0,14.0,62,0.00,,,0.00,weatherlink.com 1.10,2013-02-01 18:26:00,
2013-02-01 13:41:00,19.5,10.0,29.78,WNW,291,4.0,15.0,67,0.00,,,0.00,weatherlink.com 1.10,2013-02-01 18:41:00,
2013-02-01 13:55:00,20.4,10.0,29.78,WNW,301,6.0,16.0,63,0.00,,,0.00,weatherlink.com 1.10,2013-02-01 18:55:00,
2013-02-01 14:10:00,19.2,8.0,29.79,WNW,287,7.0,14.0,61,0.00,,,0.00,weatherlink.com 1.10,2013-02-01 19:10:00,
2013-02-01 14:25:00,19.2,8.0,29.79,SSW,201,0.0,16.0,62,0.00,,,0.00,weatherlink.com 1.10,2013-02-01 19:25:00,
2013-02-01 14:40:00,19.7,8.0,29.80,West,277,5.0,12.0,61,0.00,,,0.00,weatherlink.com 1.10,2013-02-01 19:40:00,
2013-02-01 14:56:00,19.3,8.0,29.80,WNW,285,5.0,11.0,61,0.00,,,0.00,weatherlink.com 1.10,2013-02-01 19:56:00,
2013-02-01 15:26:00,18.2,6.0,29.82,West,278,6.0,17.0,60,0.00,,,0.00,weatherlink.com 1.10,2013-02-01 20:26:00,
2013-02-01 15:41:00,18.2,6.0,29.83,WNW,287,5.0,15.0,60,0.00,,,0.00,weatherlink.com 1.10,2013-02-01 20:41:00,
2013-02-01 15:56:00,17.9,7.0,29.83,West,277,7.0,10.0,62,0.00,,,0.00,weatherlink.com 1.10,2013-02-01 20:56:00,
2013-02-01 16:11:00,17.5,6.0,29.85,West,273,4.0,11.0,62,0.00,,,0.00,weatherlink.com 1.10,2013-02-01 21:11:00,
2013-02-01 16:41:00,16.4,6.0,29.87,NW,309,8.0,14.0,64,0.00,,,0.00,weatherlink.com 1.10,2013-02-01 21:41:00,
2013-02-01 16:56:00,15.9,6.0,29.88,WNW,284,5.0,11.0,64,0.00,,,0.00,weatherlink.com 1.10,2013-02-01 21:56:00,
2013-02-01 17:11:00,15.5,6.0,29.89,WNW,284,5.0,10.0,65,0.00,,,0.00,weatherlink.com 1.10,2013-02-01 22:11:00,
2013-02-01 17:26:00,15.1,6.0,29.90,SW,233,3.0,10.0,67,0.00,,,0.00,weatherlink.com 1.10,2013-02-01 22:26:00,
2013-02-01 17:41:00,14.9,6.0,29.91,WNW,288,5.0,13.0,67,0.00,,,0.00,weatherlink.com 1.10,2013-02-01 22:41:00,
2013-02-01 17:56:00,14.8,5.0,29.92,WNW,293,10.0,14.0,66,0.00,,,0.00,weatherlink.com 1.10,2013-02-01 22:56:00,
2013-02-01 18:11:00,14.5,5.0,29.93,West,265,2.0,10.0,67,0.00,,,0.00,weatherlink.com 1.10,2013-02-01 23:11:00,
2013-02-01 18:26:00,14.2,5.0,29.94,WNW,288,4.0,7.0,68,0.00,,,0.00,weatherlink.com 1.10,2013-02-01 23:26:00,
2013-02-01 18:41:00,14.0,6.0,29.95,WSW,253,4.0,9.0,69,0.00,,,0.00,weatherlink.com 1.10,2013-02-01 23:41:00,
2013-02-01 18:57:00,13.8,6.0,29.96,WNW,299,2.0,9.0,70,0.00,,,0.00,weatherlink.com 1.10,2013-02-01 23:57:00,
2013-02-01 19:11:00,13.9,6.0,29.97,WSW,246,3.0,8.0,70,0.00,,,0.00,weatherlink.com 1.10,2013-02-02 00:11:00,
2013-02-01 19:41:00,14.7,5.0,29.99,West,279,4.0,19.0,64,0.00,,,0.00,weatherlink.com 1.10,2013-02-02 00:41:00,
2013-02-01 19:57:00,14.7,5.0,29.99,West,266,5.0,10.0,65,0.00,,,0.00,weatherlink.com 1.10,2013-02-02 00:57:00,
2013-02-01 20:12:00,14.8,5.0,30.00,WNW,294,5.0,12.0,65,0.00,,,0.00,weatherlink.com 1.10,2013-02-02 01:12:00,
2013-02-01 20:26:00,14.7,5.0,30.00,SW,236,4.0,8.0,65,0.00,,,0.00,weatherlink.com 1.10,2013-02-02 01:26:00,
2013-02-01 20:42:00,14.6,5.0,30.01,NW,309,7.0,15.0,66,0.00,,,0.00,weatherlink.com 1.10,2013-02-02 01:42:00,
2013-02-01 20:57:00,14.5,5.0,30.01,WNW,298,11.0,14.0,65,0.00,,,0.00,weatherlink.com 1.10,2013-02-02 01:57:00,
2013-02-01 21:12:00,14.1,4.0,30.02,West,278,4.0,9.0,65,0.00,,,0.00,weatherlink.com 1.10,2013-02-02 02:12:00,
2013-02-01 21:27:00,13.7,4.0,30.02,NNW,328,4.0,13.0,66,0.00,,,0.00,weatherlink.com 1.10,2013-02-02 02:27:00,
2013-02-01 21:42:00,13.5,4.0,30.03,WSW,242,3.0,14.0,65,0.00,,,0.00,weatherlink.com 1.10,2013-02-02 02:42:00,
2013-02-01 21:57:00,13.2,2.0,30.04,WSW,249,5.0,20.0,62,0.00,,,0.00,weatherlink.com 1.10,2013-02-02 02:57:00,
2013-02-01 22:12:00,12.8,2.0,30.04,SSW,203,8.0,15.0,63,0.00,,,0.00,weatherlink.com 1.10,2013-02-02 03:12:00,
2013-02-01 22:27:00,12.5,2.0,30.04,WNW,288,6.0,15.0,63,0.00,,,0.00,weatherlink.com 1.10,2013-02-02 03:27:00,
2013-02-01 22:42:00,12.2,2.0,30.05,WNW,287,4.0,12.0,64,0.00,,,0.00,weatherlink.com 1.10,2013-02-02 03:42:00,
2013-02-01 22:57:00,12.1,2.0,30.05,WNW,286,5.0,10.0,63,0.00,,,0.00,weatherlink.com 1.10,2013-02-02 03:57:00,
2013-02-01 23:12:00,12.0,2.0,30.06,WNW,295,4.0,10.0,64,0.00,,,0.00,weatherlink.com 1.10,2013-02-02 04:12:00,
2013-02-01 23:27:00,12.0,2.0,30.07,WSW,257,4.0,9.0,65,0.00,,,0.00,weatherlink.com 1.10,2013-02-02 04:27:00,
2013-02-01 23:42:00,11.7,3.0,30.07,WNW,283,4.0,10.0,67,0.00,,,0.00,weatherlink.com 1.10,2013-02-02 04:42:00,
2013-02-01 23:57:00,11.4,2.0,30.07,West,269,1.0,7.0,67,0.00,,,0.00,weatherlink.com 1.10,2013-02-02 04:57:00,